Theta_e
339 335 334 343 343 341 341 341 341 343 342 343 347 348 349 348 348 348 348 347 347 346 346 345 344 344 344 344 343 343 343 342 341 341 341 344 347 348 349 348 349 349 349 348 348 347 346 345 346 346 347 346 346 346 347 347 347 346 346 345 346 346 346 345 344 343 343 343 343 343 344 344 344 344 343 342 341 339 338 337 338 335 334 336 340
338 335 334 335 346 341 341 341 342 344 345 345 347 348 348 347 347 347 347 347 347 345 345 344 343 343 343 342 343 342 341 341 341 341 341 341 342 344 345 347 348 347 347 347 346 346 346 345 345 345 345 346 347 346 346 346 346 345 345 345 344 344 344 343 342 341 341 341 341 340 341 342 341 340 340 341 340 338 337 336 336 333 331 337 337
339 336 334 337 345 346 342 342 344 345 346 346 347 348 348 347 347 347 347 347 347 346 346 345 344 343 342 341 340 340 341 340 340 340 340 340 339 340 342 344 345 346 346 344 343 343 343 342 344 345 345 346 346 346 346 345 344 344 344 344 344 343 342 342 341 341 341 341 340 339 338 340 338 337 338 338 337 336 335 334 335 335 333 336 334
336 334 334 338 342 343 345 347 346 346 346 347 348 347 347 347 347 347 347 346 346 346 345 342 341 343 343 343 340 340 342 341 341 341 341 340 340 340 340 340 341 343 343 342 341 342 342 343 344 344 345 344 344 345 345 344 344 344 344 343 343 342 341 341 340 340 339 339 338 335 335 330 333 337 337 337 337 336 335 334 334 335 335 334 334
335 333 333 332 335 341 347 347 347 347 347 347 347 347 346 347 347 347 346 345 346 344 343 342 341 341 342 342 342 342 340 341 340 339 340 340 341 340 340 340 341 340 341 342 341 341 342 342 343 345 344 344 344 344 344 344 344 344 343 343 342 341 340 339 339 338 337 336 335 332 328 330 331 336 336 336 335 334 334 332 332 333 333 333 334
334 332 332 331 332 335 346 347 347 347 347 347 347 347 347 346 347 346 345 344 344 343 342 341 341 339 338 338 343 342 340 338 339 340 341 340 340 339 340 339 339 339 340 339 341 343 343 343 343 343 344 344 343 343 344 344 343 343 343 342 341 340 339 338 338 336 335 333 332 328 327 327 329 332 338 336 334 335 333 332 330 331 332 332 332
333 331 332 331 331 336 345 347 347 346 346 346 346 346 346 346 346 345 344 343 342 341 342 343 342 341 339 338 341 340 340 340 340 340 340 341 340 339 339 340 339 339 339 341 342 342 343 343 343 344 344 343 343 343 344 343 343 342 341 340 339 339 338 337 336 335 333 329 325 325 325 326 327 326 334 336 335 335 332 331 330 331 332 330 330
333 332 330 329 332 338 345 346 346 345 346 346 345 346 346 346 345 344 343 343 341 340 340 341 341 342 342 341 339 339 339 339 339 340 339 340 340 340 340 340 339 339 339 340 341 343 343 343 343 343 343 343 343 343 342 342 342 341 340 339 339 338 337 337 335 334 333 326 325 325 325 325 325 326 333 333 334 332 330 331 330 329 329 329 333
331 331 330 329 333 341 344 345 345 345 345 345 345 346 345 345 343 342 341 340 339 338 341 341 339 340 341 339 336 337 339 339 339 337 337 337 337 337 337 338 338 338 338 339 340 341 342 342 343 343 343 343 342 342 342 342 340 339 339 339 338 337 336 335 334 331 328 325 325 326 327 325 324 324 331 332 332 330 330 330 332 330 328 330 331
331 330 329 329 331 338 342 344 344 345 345 345 345 345 344 344 343 342 339 339 339 340 340 338 337 341 340 340 339 340 340 340 338 337 338 339 339 340 340 339 338 339 339 339 339 340 341 341 342 341 343 342 342 341 341 341 341 339 339 338 337 336 335 333 331 328 323 322 322 322 329 335 326 327 331 333 330 329 329 332 335 331 328 329 332
330 329 329 330 334 340 345 346 345 344 344 345 345 345 344 344 343 341 338 338 338 340 341 338 336 340 340 341 341 340 338 338 339 339 339 340 340 340 340 340 340 339 338 339 339 341 342 342 342 341 341 341 340 340 340 340 340 339 338 337 336 335 334 331 327 321 321 321 322 321 326 332 324 327 333 333 332 330 332 332 332 326 331 331 331
332 328 329 332 341 339 342 342 344 344 345 344 345 344 344 343 343 342 339 338 338 339 339 338 340 342 341 341 340 337 336 336 339 339 338 338 339 339 338 338 338 338 338 338 338 340 340 341 341 341 339 339 339 339 339 339 339 338 337 336 335 333 332 330 323 321 319 319 321 322 320 321 321 328 332 331 330 329 328 328 327 325 328 329 329
332 330 328 330 332 339 340 343 342 343 345 345 345 344 344 343 342 341 338 338 338 338 338 338 340 341 341 342 341 339 336 336 336 336 336 337 337 338 338 338 337 337 337 337 337 339 340 341 340 339 338 338 338 339 338 338 338 337 336 335 334 333 331 328 320 320 320 319 321 319 319 321 322 330 330 330 329 327 328 329 328 328 327 326 327
333 332 328 331 332 340 337 339 341 343 344 345 345 344 343 342 341 340 338 338 338 337 337 341 341 342 342 342 340 338 337 335 335 336 336 337 337 338 338 338 338 338 338 337 338 338 339 340 339 337 337 337 337 338 338 338 337 336 335 334 333 331 328 326 325 318 319 318 320 320 318 322 323 329 329 330 330 330 329 328 327 327 325 325 327
333 333 331 329 330 331 338 336 339 340 342 345 344 344 342 341 341 340 338 337 337 336 336 336 340 342 342 341 339 338 336 336 336 335 337 338 338 338 339 338 337 337 337 337 337 337 338 338 338 337 336 336 336 337 337 337 336 335 334 333 332 329 325 319 319 316 318 320 318 319 316 319 330 327 328 329 327 325 326 326 325 325 326 323 325
335 334 332 328 328 328 330 337 334 334 337 341 343 342 342 342 341 339 338 337 337 337 337 336 341 342 340 340 340 338 337 336 336 337 337 337 336 337 336 337 337 337 337 337 337 337 337 338 337 335 335 335 335 335 335 335 335 334 333 331 330 328 324 321 315 314 314 317 316 317 316 318 334 328 329 327 326 327 326 325 326 326 325 327 327
336 336 334 331 330 329 329 330 332 331 331 334 337 339 340 341 341 340 339 339 340 339 337 336 339 341 341 341 339 338 338 336 336 336 337 337 337 335 336 336 337 336 336 336 337 337 336 337 336 335 335 334 334 334 334 334 334 333 332 331 329 327 323 320 316 313 314 317 316 317 317 318 330 328 328 326 327 328 326 326 325 325 325 325 325
336 336 335 335 333 332 330 329 332 333 331 331 332 336 339 340 340 339 339 340 341 341 341 341 340 340 340 341 340 339 337 337 338 338 338 337 336 336 338 336 335 335 335 335 335 336 336 335 335 334 334 333 333 333 333 332 332 331 331 330 329 326 323 321 313 313 314 321 312 317 316 327 332 326 326 327 329 327 327 325 325 324 323 325 326
334 334 332 335 334 333 331 331 332 332 332 330 326 332 333 336 337 337 338 339 340 339 339 338 337 338 337 336 336 335 335 336 336 336 336 335 333 331 335 337 335 336 335 335 335 336 335 335 334 334 334 333 333 333 332 331 330 329 329 327 323 320 319 316 312 311 312 312 316 315 316 330 331 328 327 329 328 327 326 325 325 324 322 323 324
332 331 332 333 335 335 333 332 331 331 330 329 326 326 330 330 334 335 335 336 336 335 334 332 330 330 331 330 328 327 327 327 327 329 331 334 331 327 331 335 335 334 334 334 335 335 335 334 334 334 333 332 331 330 330 330 329 328 326 324 320 317 312 310 311 312 310 313 318 313 322 331 330 327 329 328 328 327 327 326 325 325 325 324 323
330 330 331 332 334 333 333 332 331 331 331 331 331 331 329 328 328 329 331 332 332 331 330 324 322 321 322 321 323 322 322 324 324 323 323 322 324 326 331 336 335 334 334 334 334 334 335 334 334 334 333 329 323 322 322 326 327 325 323 319 315 312 311 311 311 312 311 311 314 313 326 331 330 329 328 329 328 327 326 325 326 325 325 325 323
327 327 330 331 332 332 333 332 331 331 331 331 332 331 330 328 328 329 326 325 325 323 321 320 325 316 319 319 318 321 320 318 321 328 321 322 323 325 329 334 335 334 335 334 333 334 334 335 334 334 332 326 318 312 313 317 320 321 318 315 310 309 311 310 310 311 312 311 314 317 328 330 330 332 329 329 329 326 325 324 325 324 325 324 324
325 326 327 330 331 331 332 332 332 332 332 331 331 331 331 329 327 328 328 323 324 319 319 319 316 316 314 314 316 316 316 317 318 320 320 322 322 325 329 330 332 331 334 333 333 333 334 334 334 331 328 320 314 311 313 311 311 315 314 311 307 308 311 312 310 309 311 311 314 320 328 330 330 330 331 332 330 328 325 324 325 325 325 325 324
324 325 326 329 331 330 329 332 332 332 332 331 331 330 330 326 325 328 327 322 319 319 318 317 315 314 314 314 315 314 314 315 325 326 324 318 319 322 325 326 327 325 326 324 325 326 326 327 326 323 318 312 312 311 312 313 313 312 311 309 307 306 308 309 310 310 311 313 313 320 325 329 330 330 331 331 331 330 326 325 326 325 326 325 325
323 325 327 328 329 330 330 331 332 332 332 331 330 329 330 326 323 326 328 326 322 317 317 316 315 315 314 315 314 314 315 316 317 318 318 318 318 319 319 318 317 318 320 321 320 318 315 314 312 313 312 311 312 312 312 314 313 311 310 308 308 306 307 307 309 310 313 312 312 318 322 327 330 331 331 331 331 331 330 329 327 327 327 327 327
325 325 326 327 329 330 330 330 330 331 332 331 330 330 329 328 325 325 326 327 325 322 319 317 316 317 316 315 314 315 315 316 316 317 317 317 319 318 317 317 317 318 321 321 319 317 315 312 311 311 311 309 310 310 308 308 310 309 309 308 309 310 308 307 307 310 313 312 313 318 321 325 329 331 332 331 330 331 331 328 329 329 329 329 329
327 325 326 328 330 330 330 330 329 330 331 332 331 330 329 329 326 323 325 326 326 325 324 321 319 318 317 315 317 314 313 315 314 314 317 316 318 316 317 315 317 317 319 319 318 315 313 314 312 311 309 309 309 308 309 309 306 308 309 308 307 307 309 309 308 309 311 312 313 316 321 326 329 330 331 332 332 333 332 331 330 331 331 332 331
329 327 327 327 329 330 331 330 329 330 330 331 330 329 329 329 328 324 324 323 324 325 325 324 321 320 318 318 317 317 317 314 314 312 313 315 317 316 316 317 316 316 319 317 317 315 314 313 312 312 310 307 307 308 307 306 306 306 307 308 308 309 308 307 308 309 310 311 312 314 318 321 324 327 331 332 333 333 333 332 333 333 332 333 332
329 330 330 329 328 330 331 329 329 329 330 331 329 329 329 329 329 327 325 322 323 324 323 321 321 320 320 318 316 317 315 315 314 315 311 315 314 312 315 317 316 315 317 317 316 315 313 312 312 310 307 307 306 309 307 308 306 306 307 310 309 309 310 308 308 307 308 309 311 313 316 320 323 326 329 331 333 333 333 333 333 333 333 334 333
330 331 331 331 331 331 331 330 330 330 330 330 329 328 328 328 328 327 327 324 322 321 318 320 320 319 320 319 318 318 317 317 317 313 314 314 312 311 311 313 314 312 314 316 314 314 314 310 310 309 309 309 310 311 309 311 311 310 308 311 311 310 310 309 310 310 310 309 310 311 314 317 320 324 328 330 332 332 333 333 333 334 334 334 335
330 330 332 332 333 332 331 331 330 327 330 330 330 328 328 327 328 328 328 326 323 321 320 321 319 320 320 320 318 318 318 317 316 315 313 313 311 311 313 311 311 311 312 315 310 314 311 312 313 311 312 313 314 312 312 314 314 314 313 312 313 310 310 310 308 309 310 310 310 309 311 314 317 320 323 327 329 331 332 332 333 334 334 334 334
329 330 331 333 332 333 333 332 330 328 328 330 330 329 328 327 327 327 326 325 322 322 321 320 319 319 318 319 318 318 317 316 316 314 315 314 312 313 312 311 314 312 311 312 311 309 311 311 310 313 315 314 315 315 313 313 315 316 314 314 312 309 309 309 309 310 309 310 309 309 310 311 313 316 319 322 326 328 330 330 331 331 333 333 334
329 330 331 330 331 333 334 334 332 329 329 330 330 330 329 327 326 325 324 323 322 322 321 320 320 321 320 319 319 318 317 317 316 316 314 313 312 313 312 313 314 313 310 310 310 309 309 311 315 314 314 314 315 317 314 313 314 315 313 312 308 309 309 308 310 310 310 311 311 310 311 311 310 312 314 316 320 324 326 328 329 330 331 332 332
326 326 327 328 330 332 333 334 333 331 330 331 331 331 330 328 325 325 324 323 323 322 322 321 320 320 320 319 319 319 317 317 316 314 313 313 312 312 312 313 313 311 311 310 311 311 313 314 316 315 315 315 316 317 315 315 314 309 310 308 307 309 307 308 309 310 309 310 310 310 311 312 312 313 313 314 317 318 322 325 326 328 329 330 331
323 323 325 326 327 329 331 333 331 332 329 330 331 331 331 329 326 325 325 324 323 323 323 321 320 320 320 320 320 320 318 318 316 316 315 314 314 314 314 317 314 312 312 313 316 316 316 317 316 316 316 315 315 314 311 312 312 313 312 309 310 309 307 309 309 309 309 310 310 310 310 311 312 312 312 311 310 313 316 320 323 325 326 327 329
323 323 323 324 325 327 328 330 330 331 331 331 331 331 331 329 326 324 325 324 324 323 323 323 322 320 320 320 320 320 319 319 317 317 319 319 319 319 319 319 318 318 318 317 316 317 317 316 315 316 315 315 310 313 314 314 313 310 309 309 309 309 310 310 309 309 310 309 309 310 310 310 310 310 310 311 311 311 313 316 319 321 322 324 326
323 322 322 322 324 325 325 328 329 330 331 331 331 330 329 328 326 326 325 325 325 324 324 323 322 321 320 321 320 320 320 320 319 320 322 320 320 320 320 320 319 320 319 318 317 317 316 315 315 314 312 309 310 314 316 314 310 309 308 310 312 312 312 311 309 309 308 307 308 308 308 309 308 308 309 309 310 310 310 313 315 316 316 319 322
321 322 322 323 324 324 325 326 328 328 330 331 330 330 330 328 326 326 323 325 325 325 324 323 323 322 321 321 321 322 322 322 322 323 324 323 322 321 320 320 321 320 319 318 318 318 317 316 316 315 313 313 313 313 313 310 307 309 311 313 314 313 311 309 308 306 305 307 307 307 308 307 307 307 308 308 308 309 309 310 312 312 311 314 318
321 321 321 322 322 323 323 323 325 326 328 329 328 329 329 327 326 326 325 324 324 324 324 323 323 322 322 322 322 323 324 325 325 324 324 324 323 323 322 320 319 318 318 316 314 314 315 313 314 314 312 311 311 312 310 306 310 311 312 313 312 311 309 307 306 306 306 306 306 307 305 306 305 306 306 306 306 306 306 307 307 308 309 310 314
321 321 320 321 321 322 322 323 323 326 326 327 327 328 328 327 326 325 325 325 326 324 323 323 323 322 321 321 321 323 325 325 326 326 326 324 323 320 321 320 320 318 318 317 312 312 313 310 310 309 310 309 309 311 307 307 307 308 308 310 309 308 307 308 308 307 307 306 305 304 305 305 304 305 305 305 305 304 304 305 304 306 306 308 310
319 319 320 320 321 322 321 322 323 323 324 325 327 328 327 327 327 327 326 327 327 326 325 325 325 325 324 324 324 325 325 325 324 325 326 323 325 324 323 321 319 318 317 317 319 318 314 312 310 307 311 313 312 309 306 305 306 310 308 308 309 308 307 308 307 306 305 306 303 303 303 304 305 304 305 304 303 303 303 304 304 304 304 304 305
319 319 319 321 321 322 322 323 322 323 325 326 327 327 329 329 328 328 328 328 327 326 327 327 328 328 328 327 327 327 326 325 324 324 324 323 323 322 321 322 322 319 316 314 317 314 314 312 313 314 311 314 312 307 306 309 309 309 310 310 308 307 308 306 303 304 304 305 304 304 304 303 304 304 304 303 303 303 303 303 302 302 302 303 303
320 319 320 320 320 321 322 322 322 323 324 325 326 326 326 326 327 325 329 325 325 328 328 326 326 327 328 329 329 328 327 325 325 324 325 324 324 324 323 324 322 320 319 317 315 316 317 315 314 316 313 309 311 307 309 313 312 308 309 307 303 307 305 301 296 299 304 303 302 303 302 301 302 303 302 301 303 303 304 304 302 302 302 302 303
318 318 319 320 321 320 322 322 322 322 323 324 322 326 325 325 324 321 322 326 322 317 321 319 323 325 327 328 329 329 328 327 326 325 324 325 325 325 325 322 320 314 316 317 318 319 317 315 314 313 314 314 309 308 310 312 313 311 307 306 306 303 303 301 304 307 299 300 299 301 299 302 301 301 301 302 303 303 304 304 303 303 302 302 302
317 319 319 320 322 321 322 322 323 322 323 322 323 323 321 318 319 316 316 318 317 316 319 323 325 323 325 325 326 327 328 328 327 326 324 325 325 325 322 320 317 318 319 320 320 318 317 318 317 314 314 315 313 312 310 310 311 312 312 306 304 301 302 305 306 308 304 307 302 304 302 301 302 301 299 301 301 302 302 303 303 303 302 302 302
316 318 320 321 321 322 322 322 322 322 323 323 323 323 322 324 322 323 321 322 323 321 321 323 322 322 324 323 322 325 325 325 326 327 326 324 325 325 323 321 320 320 320 320 320 319 318 317 318 317 315 315 315 313 312 309 309 309 311 312 310 307 305 305 305 302 307 308 306 304 304 304 302 301 303 303 303 303 302 302 302 302 302 302 302
315 317 318 319 320 321 321 321 322 322 322 322 322 321 323 323 324 325 325 324 324 325 322 320 324 321 321 322 324 321 324 325 324 325 325 324 324 325 322 321 319 320 317 320 319 318 317 317 314 314 315 313 313 311 311 310 306 306 308 309 309 307 307 304 301 302 300 303 305 304 304 303 303 303 303 304 304 302 302 301 301 300 300 301 301
314 315 316 317 319 320 320 320 321 320 322 321 321 322 323 323 323 323 323 324 323 323 318 319 319 318 320 320 320 320 321 322 324 324 324 324 323 322 322 321 321 320 317 317 316 315 315 312 312 313 314 313 312 312 309 308 307 308 306 306 305 304 304 303 303 303 300 296 300 302 301 302 303 302 302 302 302 302 302 302 302 301 301 301 301
309 312 314 316 318 319 318 319 320 320 320 320 320 321 322 324 323 323 322 321 321 318 313 310 316 312 317 311 315 317 318 319 321 322 321 322 320 321 321 320 319 318 315 316 315 315 314 314 314 314 313 311 310 308 308 309 309 307 306 305 304 303 302 300 299 301 300 298 298 299 298 298 298 299 297 298 300 301 300 301 301 300 299 300 301
307 307 307 309 312 314 315 316 318 319 319 319 320 321 322 321 323 322 322 320 315 309 311 310 312 311 316 312 314 315 316 316 315 317 319 319 320 319 319 318 317 316 313 313 312 312 311 313 313 312 312 310 308 310 309 309 308 308 307 305 302 302 299 297 300 302 300 301 297 296 296 293 291 291 295 296 295 296 298 299 299 300 300 300 300
302 305 308 310 312 313 315 315 318 318 318 319 319 320 321 322 322 322 321 320 315 314 312 311 309 311 314 312 313 314 313 313 312 312 314 317 317 316 317 316 316 312 314 314 313 312 311 312 311 310 310 309 308 308 308 308 308 306 306 305 304 304 302 300 301 300 299 295 295 293 293 292 291 291 291 294 294 294 296 297 298 299 299 300 300
Wind_Speed
4 3 2 4 5 5 6 6 7 7 5 5 8 9 10 10 11 12 12 12 14 14 13 13 13 13 14 15 16 15 15 15 14 14 12 12 15 17 17 18 18 18 18 19 20 19 19 18 18 18 18 19 19 19 18 19 18 19 19 19 19 19 19 19 18 18 19 20 19 19 19 19 18 18 17 18 18 16 14 15 12 7 7 12 17
7 3 2 1 3 6 6 6 7 7 6 6 7 9 10 11 10 10 11 13 14 14 13 13 13 13 15 16 15 16 16 15 15 14 13 12 11 13 15 16 17 18 19 19 19 19 19 18 17 17 18 18 18 19 18 18 18 18 18 19 19 18 19 19 18 18 17 17 18 18 19 19 18 17 17 17 17 17 14 15 15 7 5 14 16
4 2 1 1 2 3 3 6 7 7 6 7 8 9 10 10 10 10 12 13 14 14 14 13 13 14 14 14 15 16 15 15 15 15 15 13 12 12 12 15 15 16 18 19 18 17 17 18 17 18 18 17 18 18 18 18 17 18 18 19 19 19 18 18 17 17 16 16 15 15 14 16 17 16 16 16 16 17 15 16 15 12 9 16 13
4 1 0 1 2 1 3 7 7 6 7 8 9 10 11 10 10 10 11 12 14 14 14 13 12 15 15 15 15 14 17 17 15 15 15 15 14 13 13 13 12 14 16 16 15 17 17 17 17 18 17 17 17 18 18 17 17 17 18 18 18 17 17 17 17 16 15 15 14 11 6 6 7 16 15 15 15 16 14 16 16 16 16 14 15
4 2 2 2 1 1 6 6 6 6 7 8 10 10 10 9 9 10 11 13 14 14 13 13 13 13 14 14 14 15 14 15 15 14 15 15 14 15 15 14 13 13 14 16 17 17 17 17 16 17 16 17 17 17 18 17 17 17 17 17 16 16 16 16 15 15 14 14 13 9 7 7 5 13 15 14 14 14 14 15 14 14 14 14 14
3 3 3 2 2 2 5 6 6 7 8 9 10 11 10 9 10 11 10 11 13 12 12 12 13 13 12 12 15 15 14 13 15 15 14 14 14 14 15 14 14 14 15 15 17 17 17 16 15 15 16 16 17 17 17 17 17 17 17 16 15 16 15 15 14 14 13 12 11 6 6 7 6 6 15 13 13 12 14 14 14 13 13 13 13
5 3 3 2 2 3 4 6 7 8 9 10 11 11 10 9 11 11 10 11 12 11 12 13 13 13 12 12 14 14 14 14 14 15 16 15 15 15 15 14 15 14 14 16 16 16 16 15 16 16 17 17 17 17 16 16 16 16 15 15 15 15 14 14 13 12 11 7 5 5 6 6 5 4 13 14 15 15 15 14 12 13 14 14 13
4 3 3 3 2 4 4 8 8 9 10 11 10 11 10 11 10 12 11 11 11 9 11 13 13 12 13 14 13 13 13 14 14 14 15 15 14 15 15 14 15 14 14 16 16 16 16 15 14 14 15 16 15 15 15 15 15 14 14 14 14 14 13 13 12 11 11 6 5 5 6 5 5 4 12 13 14 14 14 13 13 12 13 12 11
4 3 3 2 3 5 4 8 9 9 10 11 10 10 11 11 12 11 11 10 9 8 14 13 12 13 14 14 12 12 13 14 14 13 14 14 13 14 14 14 14 14 14 15 15 15 15 16 16 16 16 15 15 14 14 15 14 14 14 14 13 13 13 12 11 10 6 5 5 5 5 5 4 4 10 12 13 12 10 7 8 12 14 10 12
3 3 3 3 3 4 3 9 10 9 10 11 10 11 11 12 11 11 10 9 7 11 12 11 9 12 12 12 12 12 12 13 13 13 13 13 14 14 13 14 14 13 12 13 15 14 14 14 15 15 15 15 15 14 14 14 14 13 13 13 13 12 12 11 10 7 5 5 5 5 5 7 4 5 8 12 12 11 8 5 6 10 4 9 15
4 3 3 3 4 6 6 6 8 10 9 10 10 12 12 12 11 11 9 7 6 11 10 10 8 11 11 12 11 12 12 12 12 12 13 13 13 13 13 13 13 12 11 12 14 15 14 15 15 15 15 15 14 14 14 13 13 12 13 12 12 12 11 10 8 5 5 5 5 5 5 7 3 1 11 12 11 11 8 9 10 8 14 14 13
4 3 3 3 6 8 8 8 7 10 10 10 10 11 12 11 10 11 9 7 6 8 9 10 10 11 11 11 11 12 10 11 12 12 12 12 12 13 12 12 12 12 11 11 13 13 13 15 15 15 14 13 13 13 13 12 12 12 12 12 11 10 9 9 5 5 4 5 5 4 5 4 4 4 11 10 10 11 7 10 9 8 15 11 12
4 3 3 4 4 8 8 8 6 5 9 10 9 10 11 11 11 10 9 7 7 9 9 9 11 10 10 10 13 11 10 9 11 11 10 11 11 11 11 12 12 11 11 11 12 13 13 14 16 15 13 13 13 13 12 11 11 11 11 10 10 9 8 7 4 5 4 4 4 5 4 4 5 8 10 10 10 9 10 11 9 12 11 10 10
7 3 3 4 4 7 8 7 6 5 7 8 8 8 10 10 11 10 9 8 8 7 9 11 10 10 10 11 12 11 9 10 10 10 10 10 10 10 11 11 12 11 10 10 11 11 12 13 15 14 13 13 12 12 11 10 10 10 9 9 8 8 7 5 5 4 4 4 4 4 4 3 3 9 11 11 11 10 10 11 11 10 9 9 11
7 4 3 3 4 4 8 7 6 6 7 9 7 6 9 10 11 10 9 8 8 8 7 8 10 10 10 11 11 11 10 9 10 10 10 10 10 11 11 11 11 10 10 9 9 11 11 12 13 13 13 13 12 11 10 9 9 9 8 8 7 6 6 4 3 3 4 3 3 4 4 4 6 6 9 12 9 8 9 10 8 8 11 7 6
6 5 3 3 3 3 4 6 7 7 6 7 7 6 9 11 11 10 9 9 8 8 9 8 12 10 10 11 11 11 10 9 10 10 9 9 10 10 10 10 10 10 10 9 9 9 10 10 11 11 12 13 12 12 10 9 8 7 7 7 6 6 6 4 3 3 3 3 4 3 4 4 8 10 11 7 7 8 8 9 10 12 9 12 11
6 4 4 3 3 3 3 3 5 7 7 8 6 7 8 9 9 9 7 5 5 8 8 8 9 9 10 11 11 10 10 9 9 9 10 9 9 7 8 9 9 9 9 8 9 9 9 9 9 10 11 12 12 12 11 9 7 6 6 6 5 5 4 4 3 3 3 3 3 4 5 3 7 8 7 6 8 10 8 10 8 8 8 8 6
6 5 5 4 4 3 3 3 4 4 4 5 8 7 7 8 8 7 6 6 7 8 7 9 10 8 7 8 10 9 10 9 8 9 9 9 8 7 6 9 9 8 8 8 8 8 7 7 8 10 10 11 11 11 11 10 8 6 5 5 4 4 4 4 2 2 3 3 4 3 3 6 9 7 7 8 14 10 11 8 8 8 8 10 7
7 5 6 5 4 3 3 3 4 4 4 3 4 5 8 8 8 7 7 8 8 8 7 7 8 8 7 8 9 8 8 9 9 8 7 7 7 7 7 6 8 8 8 7 7 6 6 6 8 9 9 10 10 11 10 10 9 7 6 5 4 4 5 3 2 2 3 3 3 5 4 8 10 7 6 10 9 9 8 8 8 6 7 7 10
6 6 6 5 4 4 3 3 2 3 2 2 3 4 6 8 7 7 8 7 7 8 7 7 8 8 8 8 8 7 7 6 9 6 7 7 6 5 6 6 6 7 7 6 6 5 5 6 7 8 9 9 9 9 9 9 9 8 6 5 4 4 2 2 2 2 3 2 3 3 5 9 9 2 5 7 6 8 8 8 8 9 9 7 7
5 7 4 5 5 3 4 3 2 3 3 3 3 3 3 7 6 7 8 7 7 7 8 7 7 7 7 7 7 5 4 4 4 4 5 4 5 5 5 4 6 6 6 5 4 4 4 5 6 7 8 8 8 8 8 8 8 7 7 5 4 2 2 2 2 2 2 3 3 4 6 7 9 8 4 8 8 6 7 5 9 7 10 11 7
7 6 6 6 6 6 6 5 3 3 3 2 2 2 2 3 4 4 3 4 5 6 5 4 4 3 5 4 3 3 3 3 3 4 3 3 3 4 5 5 6 5 4 4 4 4 4 4 5 7 8 7 7 6 5 6 7 6 6 5 3 1 1 2 3 3 3 4 3 5 7 8 8 10 6 8 8 2 2 2 4 5 9 8 8
7 7 6 8 7 6 6 7 6 4 5 3 3 3 3 2 2 4 3 3 4 4 4 3 3 3 3 3 3 3 3 2 2 2 2 3 2 4 5 5 5 4 4 4 3 3 5 5 7 7 7 6 4 4 4 4 4 5 5 4 2 2 1 1 2 2 3 3 4 6 7 9 9 9 10 11 10 6 2 2 4 5 7 8 8
8 7 7 6 7 6 6 5 7 6 5 3 3 3 2 1 1 3 3 2 2 3 3 3 3 3 3 3 3 3 2 2 3 4 3 2 3 4 5 6 6 7 7 5 6 8 8 7 7 6 4 3 3 4 4 4 5 3 4 4 3 3 3 2 2 3 3 4 4 7 7 9 10 10 10 11 11 11 4 3 4 5 8 8 8
6 5 5 8 9 8 7 6 6 7 6 5 4 4 3 1 2 2 3 3 2 1 2 3 2 3 3 3 3 2 2 2 1 1 1 1 1 1 2 2 2 2 4 2 3 3 4 3 4 3 3 3 4 4 4 5 4 4 4 3 3 3 3 3 3 3 4 4 4 7 8 8 10 11 11 12 12 12 9 10 5 7 9 9 10
5 6 8 8 9 7 8 7 7 7 8 6 6 4 3 4 2 3 3 3 2 2 2 2 2 2 2 2 3 3 2 2 1 1 1 1 1 1 1 1 1 1 2 1 1 2 2 2 3 3 3 2 2 2 2 2 3 4 3 3 4 4 3 3 3 3 4 4 5 8 8 8 10 12 13 13 13 13 12 6 7 9 10 11 11
7 7 6 6 6 7 9 8 8 8 9 5 5 4 4 3 3 3 4 4 3 4 3 3 3 3 3 2 4 3 2 2 1 1 1 0 1 1 1 1 0 0 1 0 1 1 1 1 2 2 2 3 3 3 4 3 1 2 3 3 3 4 4 4 4 4 4 4 5 8 8 10 11 12 13 14 15 15 15 12 9 12 14 14 14
7 7 7 6 7 9 8 9 8 8 7 8 7 6 5 4 5 4 4 5 4 5 5 4 3 4 3 3 3 4 4 4 3 2 2 0 2 1 1 1 1 0 1 1 0 1 1 1 1 2 2 2 3 4 4 3 3 1 3 4 4 4 4 4 4 5 4 5 5 6 8 8 8 10 13 15 16 16 17 16 17 16 16 15 15
9 9 8 7 8 8 8 10 9 9 7 7 7 6 6 5 5 4 5 4 4 5 4 4 4 4 3 3 3 4 2 2 3 3 2 2 2 1 1 1 1 1 1 2 1 2 2 1 1 2 2 3 2 3 3 4 3 1 2 5 5 4 5 4 4 5 4 5 5 6 8 8 9 11 12 14 15 17 17 18 18 19 18 18 18
9 8 8 9 7 8 9 11 9 9 7 7 6 6 6 6 7 6 6 4 5 4 4 4 4 4 4 3 4 4 4 4 4 3 4 4 3 1 2 3 3 2 2 3 2 2 3 2 2 2 3 3 4 3 2 4 5 4 3 4 5 5 5 4 5 5 5 5 5 6 9 10 9 10 11 12 14 16 17 19 19 20 20 20 19
8 9 8 7 7 8 9 9 8 7 7 8 7 7 6 6 6 6 5 6 5 5 4 4 4 4 4 4 4 4 4 4 4 4 3 3 3 3 5 2 3 4 3 4 2 3 2 3 4 3 3 4 4 2 2 4 4 5 3 4 5 4 5 4 4 5 5 5 5 5 7 10 10 9 11 12 13 14 16 17 19 20 21 21 21
10 9 8 7 7 9 9 9 9 7 8 8 7 6 7 6 6 6 6 6 4 5 5 4 5 4 3 3 3 4 4 4 4 4 5 5 5 5 3 3 5 3 4 3 2 2 3 3 3 3 3 2 4 3 2 2 4 5 4 5 4 5 5 5 5 5 5 5 5 5 5 6 9 10 10 12 13 14 15 17 18 19 20 21 22
8 9 9 9 9 9 9 9 9 8 9 9 8 7 6 6 6 7 6 6 6 5 5 6 5 4 5 4 4 4 5 5 5 5 5 5 5 5 4 5 5 3 2 3 3 2 2 3 4 2 2 2 3 5 2 4 4 5 4 6 4 5 4 5 5 6 6 6 6 6 6 5 5 8 10 10 12 14 15 16 16 17 19 20 22
8 8 9 11 9 7 7 7 9 10 11 9 8 7 7 6 6 6 5 6 5 6 6 5 5 5 5 4 5 5 5 5 5 4 5 4 4 4 5 5 5 4 3 3 3 3 3 3 3 0 3 2 4 5 5 5 5 4 5 3 3 4 5 6 6 6 6 6 6 6 6 6 6 5 6 9 10 11 14 15 15 16 17 19 20
6 7 11 11 10 9 8 7 9 10 10 9 9 8 7 6 6 5 5 6 6 6 5 5 5 5 5 5 5 5 5 5 5 5 5 4 4 4 5 6 3 3 3 3 3 2 3 3 1 3 3 4 4 5 3 5 6 6 5 5 6 5 4 6 6 6 6 6 6 6 6 6 6 6 6 6 8 10 10 12 14 15 17 17 18
10 9 8 7 9 8 8 8 8 10 10 10 9 8 7 6 6 6 5 5 5 6 5 6 6 5 5 5 5 5 5 5 5 4 4 4 4 4 5 4 3 3 3 2 3 4 4 4 5 4 3 5 3 4 3 5 4 5 5 6 6 4 5 6 6 6 6 5 6 6 6 6 6 5 6 6 6 7 10 10 13 14 14 16 17
8 7 8 7 8 8 8 9 9 10 9 9 8 7 6 6 6 6 7 6 6 6 5 5 5 5 5 5 5 5 5 5 5 5 5 4 4 4 3 4 3 3 3 3 3 3 2 2 4 2 2 4 3 6 7 4 4 4 5 6 6 5 6 5 6 6 6 6 6 6 6 6 5 6 5 6 6 6 8 10 10 11 12 14 16
7 8 7 9 10 9 9 9 8 8 9 9 9 8 7 7 6 6 6 7 7 6 5 4 5 5 5 6 5 6 6 6 6 6 5 4 4 4 4 3 4 4 3 3 4 3 3 3 4 4 4 4 5 6 6 5 3 5 6 6 6 5 6 6 6 6 5 7 6 6 5 5 6 6 5 5 6 6 6 9 11 11 12 11 15
7 8 8 7 7 7 7 8 8 8 7 7 7 7 6 6 5 6 6 6 5 4 4 4 5 5 5 6 6 6 6 6 6 6 6 6 5 5 4 3 3 3 3 3 3 3 3 3 4 4 1 2 3 5 5 3 5 6 6 6 6 6 6 6 6 5 5 5 6 5 5 5 4 5 6 6 5 5 6 6 6 6 7 11 13
7 7 9 8 8 7 7 7 8 8 6 6 6 6 6 7 7 4 5 6 4 4 4 5 5 5 5 5 5 5 5 6 6 7 6 5 5 5 6 4 5 4 3 3 4 4 5 3 4 4 4 3 4 5 3 4 4 4 6 7 5 6 6 6 5 5 5 5 4 4 5 5 4 6 5 5 5 5 5 6 6 6 6 8 11
7 8 9 10 10 11 9 11 8 7 7 7 7 8 7 6 6 8 8 5 5 5 6 5 5 6 6 6 5 5 4 5 5 4 6 6 7 7 6 3 3 3 4 6 4 3 3 3 1 1 2 3 4 2 2 2 2 5 2 3 5 4 6 7 4 5 5 5 3 4 4 5 5 5 5 5 5 5 6 6 6 6 6 6 8
11 10 11 13 11 10 12 11 8 9 9 10 9 8 9 8 7 7 5 5 5 6 6 5 7 6 7 7 6 6 5 5 5 4 5 3 3 3 4 5 5 4 4 3 2 3 2 2 2 2 2 3 4 1 2 1 2 1 4 6 2 4 6 3 3 4 5 5 4 4 4 4 6 6 6 6 6 6 6 6 6 6 6 6 6
12 13 12 11 11 11 11 9 9 10 9 10 9 10 7 7 7 5 7 5 5 7 7 6 6 7 7 8 7 6 5 4 4 5 5 4 4 3 4 5 4 4 4 4 3 4 4 3 3 3 3 2 4 1 1 3 3 1 2 2 4 8 3 2 2 2 5 4 3 5 4 4 5 5 5 5 6 6 6 6 6 6 7 6 6
10 8 10 12 11 10 10 10 10 10 9 10 10 9 8 7 6 5 5 6 5 4 5 4 5 5 5 5 6 7 5 5 4 4 4 4 4 5 6 4 5 4 4 4 5 5 4 3 3 4 3 3 1 1 2 4 3 0 3 1 2 1 6 1 7 5 0 3 2 3 2 4 5 6 6 6 6 7 7 7 7 7 7 7 7
11 12 12 12 10 13 12 12 11 10 9 9 10 8 6 5 4 2 3 2 0 3 4 5 5 4 4 5 4 4 6 6 6 6 6 6 5 6 4 4 4 4 4 5 5 4 3 4 4 3 4 4 2 1 2 1 1 0 0 2 2 1 1 4 7 6 4 8 5 5 4 4 4 4 5 6 6 6 6 7 7 7 7 7 7
11 12 11 12 11 11 11 10 9 8 10 10 10 9 9 9 7 7 7 6 7 6 7 7 5 4 4 3 4 5 4 4 6 7 8 6 7 6 7 6 5 3 3 2 2 2 2 3 4 4 4 4 3 0 0 1 1 1 1 0 2 2 4 2 2 5 4 5 5 7 9 8 6 7 9 8 7 7 5 7 6 7 7 7 6
13 11 10 11 12 11 11 11 10 9 9 9 9 9 9 9 11 12 11 10 10 8 5 4 5 4 4 5 4 3 4 5 5 5 4 5 4 5 3 2 2 3 3 3 3 3 2 2 2 3 3 2 3 2 1 0 1 2 1 1 1 0 1 1 2 3 7 1 2 7 8 8 9 8 9 10 10 8 7 6 7 6 6 7 7
13 9 9 9 12 13 11 11 10 10 9 9 10 11 11 10 11 11 10 10 10 9 7 5 5 6 6 5 4 4 5 5 6 5 6 5 5 4 3 3 3 3 4 3 3 3 4 3 2 3 4 3 3 4 3 1 2 1 1 2 1 1 1 3 3 1 3 8 9 4 4 5 8 7 7 9 9 9 10 9 8 8 7 8 7
6 8 10 11 10 9 10 9 10 9 8 10 11 11 11 12 11 10 10 8 8 6 5 4 6 4 5 3 4 4 5 5 5 5 5 4 4 4 4 4 4 5 5 4 4 5 5 5 5 5 4 3 2 2 3 3 4 2 1 1 0 1 1 1 1 2 3 6 8 5 7 4 4 8 5 6 7 7 7 9 10 8 7 8 7
7 6 6 5 6 6 8 9 10 9 9 10 11 12 12 10 10 10 12 9 6 4 5 5 5 5 6 5 4 4 4 3 3 3 4 4 5 5 5 5 4 5 6 5 3 5 5 5 5 4 5 6 2 3 5 3 3 3 3 2 2 2 3 3 2 3 2 4 6 9 8 9 10 5 8 6 4 5 8 9 10 9 8 7 7
6 6 7 8 7 8 9 11 11 9 9 11 11 12 11 11 11 12 12 11 9 8 7 6 5 5 6 5 5 5 4 4 3 2 3 4 5 5 7 6 6 5 7 7 4 4 5 6 5 5 4 4 4 5 6 4 4 4 4 4 3 3 2 1 3 3 3 3 5 7 8 5 8 13 2 2 8 8 7 7 7 8 7 7 7
Wind_Direction
205 207 247 263 155 144 132 134 141 118 121 135 108 106 103 105 104 102 107 101 91 86 84 82 83 86 84 84 85 81 80 81 79 76 71 80 81 77 76 75 74 73 74 73 72 73 73 74 74 73 73 72 71 69 68 68 68 68 68 67 63 61 58 59 58 55 55 57 59 59 60 60 60 60 60 60 59 55 50 48 42 33 40 46 49
166 223 240 258 168 143 141 138 124 118 127 125 115 111 110 108 106 106 101 96 93 88 87 87 87 83 82 82 81 79 79 78 80 79 77 76 77 77 76 75 73 72 71 72 73 72 71 72 75 76 77 77 74 72 71 70 69 70 70 69 69 67 63 61 58 55 54 53 53 55 59 60 59 58 58 58 58 56 51 51 47 37 44 54 52
135 155 231 225 131 131 140 134 120 126 130 126 116 116 112 110 108 103 99 96 93 96 92 88 91 94 91 84 79 84 89 88 84 80 79 76 75 70 74 71 73 74 73 75 74 73 72 73 76 77 76 73 72 71 72 71 71 72 71 69 68 66 65 62 58 52 49 47 45 46 39 52 60 56 57 59 59 57 52 52 52 49 51 53 54
128 136 65 96 80 59 69 91 113 121 124 116 120 117 115 110 108 104 102 98 92 86 84 86 86 82 80 79 85 83 79 80 82 81 79 79 76 72 72 68 73 74 74 74 74 71 70 72 75 77 76 76 75 74 74 74 72 71 70 70 68 67 65 62 57 52 48 45 42 39 32 14 35 61 58 59 59 59 56 52 51 51 52 53 53
114 101 82 61 74 61 90 94 105 109 118 126 120 115 114 109 105 99 93 96 91 89 91 91 83 80 82 86 92 85 84 81 80 85 86 85 83 81 78 76 77 80 80 81 79 76 75 75 76 77 78 77 75 76 75 74 72 71 71 69 68 67 64 61 56 52 48 44 43 39 31 26 13 58 61 58 57 60 56 49 45 46 39 44 51
117 108 90 88 85 67 78 96 111 120 125 118 118 117 112 114 107 95 94 93 94 94 97 93 85 80 82 88 83 81 80 86 87 84 84 82 83 81 83 85 85 86 90 90 82 78 77 78 80 83 82 79 78 77 77 76 75 72 69 71 71 69 66 61 57 53 48 45 42 40 30 29 27 33 53 49 50 58 55 46 39 41 40 49 44
117 105 94 91 61 38 78 102 108 120 124 119 119 113 117 114 100 90 80 79 92 97 92 85 86 91 95 85 78 85 88 84 85 86 86 87 86 86 84 84 85 90 91 84 82 79 78 78 80 82 82 81 79 78 79 78 76 75 75 75 74 71 68 63 58 55 52 48 43 35 32 30 25 11 49 50 46 50 49 45 45 48 47 43 36
89 85 87 61 43 27 90 104 116 121 119 118 118 115 113 104 88 85 81 85 88 94 94 93 92 96 96 88 84 88 87 88 87 87 88 86 83 83 85 91 93 90 85 88 84 79 75 76 80 82 84 83 81 81 83 82 79 80 80 78 74 71 66 62 56 51 50 45 38 33 30 25 20 12 54 52 51 47 46 50 54 55 46 38 48
92 77 67 47 40 62 98 105 122 124 121 116 118 116 111 101 89 85 85 88 96 96 91 90 94 87 83 86 86 84 86 86 84 84 85 87 90 89 88 86 86 90 94 90 86 82 79 76 80 83 83 82 84 84 82 81 84 84 82 78 74 69 64 57 51 46 40 39 29 24 26 27 13 10 56 54 55 54 50 39 25 35 41 14 51
99 81 67 60 57 75 109 121 122 121 122 122 122 113 105 96 94 92 90 92 98 100 95 88 89 91 89 88 92 84 82 82 86 87 87 88 85 83 80 80 82 84 86 88 88 84 81 79 80 81 82 81 80 83 83 84 84 82 81 78 74 68 61 55 49 45 43 39 35 27 25 38 20 9 54 58 61 49 26 21 60 50 353 49 59
104 93 85 77 70 86 75 98 109 119 123 118 117 114 104 101 101 100 95 94 98 106 100 103 98 90 92 94 95 85 80 86 89 86 87 87 87 85 84 83 81 85 91 92 90 87 84 80 80 81 79 79 80 79 82 82 83 82 79 78 75 68 61 53 48 43 40 39 40 30 24 34 22 23 55 56 57 48 31 46 46 42 44 45 43
109 104 97 78 84 83 78 77 90 119 124 119 110 108 108 108 108 105 100 97 96 102 102 105 105 98 97 102 96 93 85 89 89 91 90 90 90 91 90 90 88 91 97 100 92 87 82 77 78 80 81 81 81 82 83 83 83 83 82 80 76 69 58 53 52 43 40 34 33 26 22 11 358 45 52 54 49 43 31 50 64 45 34 29 39
113 109 90 91 89 88 79 69 59 74 120 127 122 115 113 113 108 104 104 104 100 97 105 106 99 96 95 103 98 96 97 94 91 93 91 85 82 83 84 82 85 86 94 99 96 87 85 80 77 80 84 86 86 86 84 85 84 84 84 80 76 69 62 53 50 46 35 31 27 15 8 357 347 38 60 55 56 58 46 47 32 28 24 20 38
130 118 100 101 101 94 84 77 71 82 103 126 126 122 124 123 116 108 108 109 107 110 113 110 110 108 111 105 103 105 105 105 100 95 93 93 92 89 87 87 85 86 90 93 97 97 86 83 82 85 87 87 88 88 85 86 88 86 86 80 74 66 59 51 45 47 40 26 14 9 6 351 18 42 43 46 39 35 30 39 35 37 39 8 45
137 125 115 95 91 94 91 86 82 84 92 115 130 132 124 116 116 115 116 123 124 126 119 112 115 119 118 119 114 110 105 106 105 98 93 91 92 92 91 89 85 89 95 95 93 90 86 83 81 83 83 83 81 81 82 85 88 87 82 78 65 59 59 59 48 38 33 25 12 13 1 339 42 50 62 49 41 46 33 32 26 18 39 6 46
140 126 116 98 85 80 87 88 84 79 74 109 131 121 118 116 118 123 127 133 145 139 131 125 101 106 117 117 112 114 112 107 105 107 110 107 100 96 94 91 97 96 96 93 96 95 89 83 77 79 81 82 79 77 76 79 81 83 80 74 61 56 57 60 54 36 26 23 7 6 355 354 343 48 38 39 56 37 25 29 23 27 22 43 41
142 129 125 103 101 89 83 85 94 87 87 103 111 109 115 117 120 124 125 131 116 103 123 134 101 98 113 113 118 111 107 107 101 88 84 85 82 88 99 101 102 99 98 103 101 97 87 78 73 74 76 78 77 72 71 70 71 74 77 75 69 61 49 52 51 26 14 13 8 359 349 344 14 28 46 38 26 33 43 45 16 23 3 6 23
144 143 138 132 128 119 89 87 99 95 91 98 114 109 112 115 112 108 110 80 87 96 86 93 95 88 88 98 100 105 110 106 94 91 85 72 59 48 82 111 108 109 109 102 95 91 82 75 73 72 72 73 74 71 63 60 60 61 60 72 66 66 51 45 50 10 6 12 360 336 351 344 346 29 30 15 45 23 17 18 15 26 18 341 66
150 137 161 160 150 131 123 110 115 122 117 102 106 117 115 111 110 111 95 95 98 94 96 96 102 95 79 86 88 91 96 97 94 91 87 75 65 49 39 70 101 98 99 101 103 92 80 72 69 65 62 61 62 63 61 55 50 52 47 55 62 57 53 34 32 10 2 4 347 348 334 339 337 53 25 34 31 14 9 16 21 14 4 360 341
150 150 166 170 172 148 134 127 114 124 116 95 99 113 117 113 114 114 107 108 108 107 105 104 102 101 100 96 94 88 86 93 97 89 85 79 71 60 52 71 101 103 103 101 97 83 75 62 60 59 56 51 48 49 51 51 46 40 44 50 46 40 27 16 15 2 342 337 344 334 325 334 345 344 350 29 2 14 13 6 15 358 348 358 338
165 168 170 170 182 163 159 145 140 137 126 120 98 93 105 111 111 117 119 117 118 110 105 101 99 101 101 99 95 94 97 100 95 97 87 88 84 66 49 58 98 103 98 99 82 75 60 53 50 51 52 46 43 41 40 44 40 36 30 27 42 34 7 9 0 341 324 321 336 318 318 327 331 330 17 348 350 3 8 333 348 6 341 334 350
173 175 190 180 175 182 190 169 161 161 151 137 133 130 107 89 110 113 112 115 113 112 109 112 106 100 101 97 98 104 102 100 104 106 101 98 91 84 75 75 78 78 94 96 90 59 43 41 38 44 45 44 38 30 21 20 38 34 25 20 24 18 15 2 351 339 318 316 324 310 317 322 325 318 352 339 359 19 304 289 343 330 339 337 329
183 183 193 189 184 182 185 185 185 169 165 156 153 149 148 113 103 107 106 126 127 120 124 113 118 114 96 93 90 88 96 97 101 107 109 105 103 104 92 83 78 68 88 90 71 42 26 36 36 36 39 36 37 29 17 13 17 23 20 16 18 2 342 349 335 334 307 302 314 309 317 315 312 309 318 326 322 313 212 253 300 317 322 334 327
185 182 177 183 185 183 184 182 184 181 174 169 163 162 164 116 134 135 110 133 123 135 128 131 133 131 122 108 101 95 81 66 56 74 79 59 43 49 64 71 62 48 42 41 28 31 26 32 26 30 25 25 23 26 15 15 8 11 21 14 2 7 358 322 314 308 305 300 303 304 311 313 308 303 309 317 323 332 104 233 276 287 297 314 317
172 156 174 189 188 188 181 182 184 185 184 180 166 180 177 125 158 144 157 149 153 142 140 137 146 144 139 125 120 106 91 68 59 45 47 61 42 26 38 45 43 52 35 42 19 10 18 359 356 10 27 8 13 10 16 1 5 0 7 8 359 350 349 339 313 304 291 293 289 297 302 305 305 301 304 312 314 316 312 305 268 274 279 287 297
141 178 191 187 192 181 185 182 187 190 190 185 190 170 152 189 169 169 168 173 162 169 170 160 164 173 155 130 113 105 99 83 74 72 58 55 95 63 43 37 47 61 39 43 14 8 2 2 4 356 344 354 13 359 18 37 337 346 350 350 353 338 333 320 312 292 283 289 288 289 292 295 297 297 298 301 304 311 311 301 270 263 268 281 288
181 198 183 187 180 179 190 182 189 190 192 175 180 167 193 189 183 179 172 188 179 187 186 194 192 181 168 151 136 134 126 119 118 105 164 66 179 173 113 41 72 70 54 48 348 359 355 352 357 344 322 1 346 346 344 345 350 325 327 326 328 318 309 299 307 302 292 287 282 283 285 288 293 294 294 292 295 299 302 302 266 270 285 290 294
190 191 186 186 186 190 182 185 192 189 186 186 187 192 194 191 189 186 195 186 181 199 200 200 190 188 180 181 169 159 161 157 173 170 209 157 229 236 133 188 208 251 87 319 259 290 300 341 328 326 349 355 352 324 333 326 330 349 327 308 310 303 291 290 289 290 296 295 290 289 283 282 281 284 286 288 291 292 296 296 298 302 301 298 297
197 192 189 188 193 185 180 192 191 191 187 182 190 190 191 195 187 191 195 186 194 199 197 186 198 195 187 182 169 162 158 164 180 205 145 205 247 237 202 223 242 223 160 248 232 240 273 241 299 302 325 320 327 315 334 313 311 315 320 307 303 300 302 302 288 288 289 285 290 287 288 285 282 283 285 287 287 287 289 291 294 296 298 299 299
202 195 189 198 191 182 187 194 187 192 189 181 194 188 192 196 193 192 194 184 207 196 183 196 200 190 199 187 183 178 182 185 199 180 171 213 221 234 225 238 240 213 186 228 213 218 251 272 285 298 310 305 309 295 333 313 311 310 305 297 299 292 292 288 291 280 280 283 279 280 285 283 281 282 283 284 286 288 289 291 292 294 296 298 299
200 202 201 199 188 185 194 192 189 181 183 192 193 198 190 197 193 195 191 202 201 191 194 201 201 202 201 186 186 187 181 185 188 184 194 200 206 207 226 224 253 236 212 239 208 221 242 244 258 268 274 280 278 281 302 303 301 303 286 289 284 301 291 288 282 280 277 273 272 275 279 282 281 279 281 281 284 285 287 288 290 292 295 298 298
204 206 204 198 189 192 196 192 191 183 185 195 193 196 197 199 190 189 200 199 187 199 199 198 210 203 194 193 188 189 183 190 182 184 190 195 205 205 214 206 234 229 213 239 249 232 230 249 254 256 268 280 286 284 245 264 290 288 301 287 285 289 289 295 297 293 288 284 274 268 267 275 280 279 281 284 285 284 284 286 289 292 295 296 299
207 205 205 201 203 196 196 194 190 188 193 197 196 200 197 194 190 197 196 187 193 193 201 205 206 201 191 193 194 189 189 187 193 191 189 196 199 202 211 223 233 223 210 221 241 242 250 268 266 246 284 291 292 286 256 233 257 272 281 277 320 301 305 310 300 303 299 297 295 286 279 273 274 281 280 277 279 281 283 285 288 290 292 295 298
201 201 200 207 204 204 199 196 191 193 198 200 198 198 199 197 196 198 190 184 193 196 205 201 198 199 192 194 195 193 193 195 184 196 186 188 196 204 215 238 231 210 207 198 218 216 240 253 261 282 254 240 268 264 269 284 279 276 272 311 317 293 307 304 290 288 289 290 288 290 287 290 290 288 289 284 277 277 283 287 289 290 292 295 298
197 201 203 201 197 202 196 204 194 198 197 202 199 202 199 198 197 199 195 191 194 200 206 196 196 201 187 197 196 198 199 195 192 182 189 187 191 208 217 234 212 194 200 202 203 197 210 249 260 261 272 258 261 293 304 285 283 296 313 329 301 301 303 285 294 292 291 289 293 290 294 294 293 298 297 297 295 292 291 292 293 293 296 299 301
205 204 206 194 201 204 199 204 195 202 200 202 202 202 200 199 200 201 198 197 197 203 202 202 202 192 190 199 199 201 200 199 189 180 182 193 198 207 223 224 198 189 201 184 180 213 209 215 221 202 256 281 326 294 265 262 289 307 303 297 287 294 290 290 289 290 283 293 288 291 293 289 294 295 296 293 295 298 297 294 293 294 297 298 298
205 201 199 198 203 202 201 205 201 202 202 201 204 204 194 196 198 200 203 199 202 207 205 201 196 194 196 205 201 200 203 197 191 187 180 179 192 206 220 207 185 182 183 179 200 216 216 269 304 291 186 253 293 281 279 284 298 286 292 289 286 292 284 286 287 280 298 289 286 285 289 292 292 288 287 291 295 295 297 294 290 294 294 294 295
206 206 200 198 203 198 199 203 203 201 202 199 200 201 200 196 199 202 200 203 207 206 204 190 200 202 194 206 203 198 199 198 193 186 184 175 188 197 205 189 173 169 162 170 212 197 208 196 252 231 195 211 257 265 281 300 304 295 281 278 291 282 280 287 278 283 283 287 286 286 288 295 301 294 296 293 292 296 297 299 301 298 295 292 295
206 205 203 203 200 201 198 203 203 197 201 200 199 202 200 205 205 203 205 212 213 211 196 196 202 201 200 205 198 198 198 197 196 188 190 176 180 215 230 223 179 180 179 192 211 219 223 211 218 268 258 235 256 270 269 290 292 284 284 288 288 284 285 276 275 279 277 267 284 292 303 296 304 303 303 301 298 300 301 301 305 305 301 298 299
211 203 205 202 203 201 199 203 204 194 188 193 190 200 199 201 206 206 216 212 205 204 203 204 196 201 203 197 194 197 196 198 195 189 192 171 186 204 216 211 206 184 190 220 237 215 225 215 239 231 282 303 233 247 237 255 277 279 280 281 271 280 284 274 283 284 294 297 292 299 305 312 315 309 306 303 305 302 298 299 300 299 300 303 303
213 208 206 208 206 203 192 208 198 187 184 189 196 197 200 205 213 211 213 198 197 202 212 205 199 201 196 196 191 193 193 196 201 194 216 202 196 204 207 233 190 186 210 223 223 247 229 208 207 171 235 285 300 226 230 183 286 303 272 262 293 259 266 281 294 312 315 302 308 316 321 327 315 316 312 316 312 305 301 301 300 301 301 302 304
216 206 208 211 208 204 206 207 185 192 194 194 194 199 202 205 200 209 201 191 192 203 216 204 206 200 197 193 192 192 195 196 199 207 217 233 222 202 200 217 205 219 220 223 233 221 231 207 162 260 187 230 258 218 188 122 319 251 330 318 272 271 270 305 349 316 315 306 332 323 319 319 309 311 314 327 315 310 306 304 299 298 296 294 294
213 207 211 210 209 209 212 204 197 193 198 195 191 203 200 204 199 197 193 204 205 206 212 207 196 199 196 189 185 181 180 194 203 206 218 214 212 208 215 215 216 211 219 234 231 247 236 226 193 216 252 201 249 306 202 184 249 250 269 332 333 341 346 357 347 337 287 305 331 318 323 320 305 303 307 315 313 315 310 306 304 301 300 302 299
212 210 212 213 210 211 209 206 205 199 197 197 199 201 195 195 200 192 202 196 193 204 210 203 195 197 205 194 190 180 176 193 195 201 216 213 207 212 213 206 229 206 205 222 223 236 229 219 197 219 202 273 227 293 214 189 194 45 338 124 304 25 322 332 339 306 299 290 301 294 315 301 305 312 328 324 313 307 304 305 303 302 301 299 299
208 210 209 208 208 208 208 205 204 201 199 195 196 189 170 167 160 114 124 141 63 169 196 211 199 194 188 184 194 183 188 193 206 207 202 210 212 223 210 211 215 205 198 216 230 229 221 215 204 196 188 219 250 234 21 11 136 349 212 0 347 9 243 318 342 303 347 349 330 331 330 314 311 311 306 302 297 293 295 305 301 304 301 299 299
214 215 208 209 206 209 208 206 205 200 201 198 190 179 184 183 176 182 178 195 208 192 205 199 183 193 195 172 190 190 196 202 215 216 206 205 216 203 209 210 218 181 179 211 227 204 211 196 199 195 201 204 218 170 271 351 238 117 142 68 177 249 311 329 346 304 348 286 312 336 329 327 331 341 328 316 315 311 308 298 298 300 299 296 293
220 210 208 207 206 209 205 201 201 203 200 193 182 178 188 194 197 201 203 205 213 221 188 175 176 180 171 185 189 189 197 203 219 213 212 210 208 227 231 200 175 166 172 182 186 200 210 205 172 177 169 142 145 177 163 244 50 58 79 245 355 247 161 350 282 299 318 330 347 327 320 319 332 338 326 317 316 320 314 301 299 292 293 292 296
214 203 206 203 207 208 200 199 201 202 196 184 179 183 190 196 201 207 208 211 211 211 173 179 170 161 179 195 185 193 199 207 216 218 211 200 202 202 184 174 168 162 141 139 135 129 105 83 108 120 96 121 153 144 151 170 119 67 51 76 29 344 243 220 241 259 273 305 305 280 263 324 320 301 301 303 308 314 315 316 312 313 308 302 297
214 203 206 206 208 207 205 201 202 198 194 184 184 189 194 195 199 201 207 215 211 198 160 151 167 167 183 185 199 201 197 203 211 212 214 200 179 176 165 155 146 130 115 127 134 126 120 131 107 95 108 88 92 153 134 110 102 129 125 36 97 141 318 174 159 63 341 305 292 298 307 290 278 289 276 262 287 297 303 306 305 303 302 301 308
212 211 209 202 205 199 203 200 206 196 193 189 187 192 196 193 198 201 206 207 190 157 163 160 166 166 179 182 182 179 174 173 188 199 189 175 159 158 137 125 124 135 135 118 128 121 116 100 105 133 127 114 142 123 94 100 103 93 74 100 63 345 18 11 34 2 264 243 293 309 311 325 324 296 309 283 281 296 297 295 301 303 307 305 308
211 200 202 199 196 198 199 201 204 196 192 192 189 195 195 196 201 200 202 201 187 172 170 173 150 161 170 171 176 179 168 162 150 135 137 143 142 140 139 140 137 145 119 120 131 123 124 118 124 112 108 126 122 100 99 92 95 87 78 73 73 71 58 21 338 1 351 314 314 296 312 316 306 312 252 319 315 292 280 280 278 287 294 300 308